Ashland, ME

4:42 PM EDT on August 28, 2016 (GMT -0400)
Clayton Lake

Weather History for K40B - April, 2013

Change the Weather History Date:

Wednesday, April 24, 2013

  Actual Average Record
Temperature  
Mean Temperature 48 °F -  
Max Temperature 62 °F 48 °F 73 °F (2001)
Min Temperature 36 °F 27 °F 21 °F (2004)
Degree Days  
Heating Degree Days 17    
Moisture  
Dew Point 41 °F    
Average Humidity 79    
Maximum Humidity 100    
Minimum Humidity 59    
Precipitation  
Precipitation 0.00 in - - ()
Sea Level Pressure  
Sea Level Pressure 29.97 in    
Wind  
Wind Speed 4 mph (ESE)    
Max Wind Speed 8 mph    
Max Gust Speed 16 mph    
Averages and records for this station are not official NWS values.
T = Trace of Precipitation, MM = Missing Value Source: NWS Daily Summary

Daily Weather History Graph

Daily Weather History Graph

Search for Another Location

Airport or City:

Trip Planner

Search our weather history database for the weather conditions in past years. The results will help you decide how hot, cold, wet, or windy it might be!

Date:

Astronomy

Apr. 24, 2013 Rise Set
Actual Time 5:34 AM EDT 7:38 PM EDT
Civil Twilight 5:01 AM EDT 8:11 PM EDT
Nautical Twilight 4:21 AM EDT 8:52 PM EDT
Astronomical Twilight 3:36 AM EDT 9:37 PM EDT
Moon 6:36 PM EDT (4/24) 4:40 AM EDT (4/24)
Length of Visible Light 15h 09m
Length of Day
14h 03m
Waxing Gibbous, 98% of the Moon is Illuminated
Apr 24
Waxing Gibbous
Apr 25
Full
May 2
Last Quarter
May 9
New
May 18
First Quarter

Hourly Weather History & Observations

Time (EDT) Temp. Windchill Dew Point Humidity Pressure Visibility Wind Dir Wind Speed Gust Speed Precip Events Conditions
12:25 AM 40.5 °F 38.4 °F 36.9 °F 87% 30.25 in - Variable 3.5 mph - N/A   Unknown
1:25 AM 38.7 °F - 34.9 °F 86% 30.23 in - Variable 2.3 mph - N/A   Unknown
2:25 AM 36.7 °F - 33.4 °F 88% 30.18 in - Variable 2.3 mph - N/A   Unknown
3:25 AM 36.0 °F - 35.4 °F 98% 30.15 in - Variable 2.3 mph - N/A   Unknown
4:25 AM 37.9 °F - 38.1 °F 100% 30.14 in - Calm Calm - N/A   Unknown
5:25 AM - - - N/A% 30.13 in - Calm Calm - N/A   Unknown
6:25 AM 36.5 °F - 37.6 °F 100% 30.14 in - Calm Calm - 0.00 in   Unknown
7:25 AM 37.8 °F 35.3 °F - N/A% 30.14 in - Variable 3.5 mph - N/A   Unknown
8:25 AM 39.7 °F - - N/A% 30.12 in - Variable 2.3 mph - N/A   Unknown
9:25 AM 41.0 °F 37.1 °F - N/A% 30.08 in - Variable 5.8 mph - N/A   Unknown
10:25 AM 44.1 °F 41.5 °F 40.6 °F 88% 30.05 in - Variable 4.6 mph - N/A   Unknown
11:25 AM 47.3 °F - 39.2 °F 73% 30.02 in - Variable 5.8 mph - N/A   Unknown
12:25 PM 51.6 °F - 43.3 °F 73% 29.97 in - Variable 6.9 mph 12.7 mph N/A   Unknown
1:25 PM 56.8 °F - 43.0 °F 60% 29.91 in - ESE 8.1 mph 15.0 mph N/A   Unknown
2:25 PM 59.7 °F - 46.4 °F 61% 29.87 in - East 8.1 mph 13.8 mph N/A   Unknown
3:25 PM 60.3 °F - 45.7 °F 59% 29.81 in - Variable 6.9 mph 16.1 mph N/A   Unknown
4:25 PM 57.0 °F - 45.7 °F 66% 29.76 in - Variable 6.9 mph 15.0 mph N/A   Unknown
5:25 PM 56.8 °F - 45.7 °F 66% 29.79 in - Variable 5.8 mph - N/A   Unknown
6:25 PM 54.5 °F - 45.9 °F 73% 29.77 in - Variable 5.8 mph - N/A   Unknown
7:25 PM 50.9 °F - 45.0 °F 80% 29.78 in - Variable 3.5 mph - N/A   Unknown
8:25 PM 49.6 °F - 45.9 °F 87% 29.72 in - Variable 4.6 mph - N/A   Unknown
9:25 PM - - - N/A% 29.73 in - Variable 4.6 mph 11.5 mph 0.00 in   Unknown
11:25 PM 47.7 °F - - N/A% 29.68 in - SSE 6.9 mph 16.1 mph N/A   Unknown